Time,TemperatureF,DewpointF,PressureIn,WindDirection,WindDirectionDegrees,WindSpeedMPH,WindSpeedGustMPH,Humidity,HourlyPrecipIn,Conditions,Clouds,dailyrainin,SoftwareType,DateUTC
2013-06-01 00:00:00,81.0,73.0,29.68,SSE,153,5.0,20.0,76,0.01,,,0.02,weatherlink.com 1.10,2013-06-01 05:00:00,
2013-06-01 00:14:00,79.8,73.0,29.68,SW,227,6.0,16.0,79,0.01,,,0.02,weatherlink.com 1.10,2013-06-01 05:14:00,
2013-06-01 00:29:00,79.8,71.0,29.69,SSW,193,7.0,18.0,75,0.00,,,0.02,weatherlink.com 1.10,2013-06-01 05:29:00,
2013-06-01 00:44:00,79.5,70.0,29.68,West,274,6.0,7.0,73,0.00,,,0.02,weatherlink.com 1.10,2013-06-01 05:44:00,
2013-06-01 00:59:00,78.2,65.0,29.66,SSW,208,13.0,22.0,65,0.00,,,0.02,weatherlink.com 1.10,2013-06-01 05:59:00,
2013-06-01 01:14:00,76.6,63.0,29.70,South,172,15.0,21.0,64,0.00,,,0.02,weatherlink.com 1.10,2013-06-01 06:14:00,
2013-06-01 01:29:00,73.1,64.0,29.73,WSW,252,22.0,29.0,72,0.00,,,0.02,weatherlink.com 1.10,2013-06-01 06:29:00,
2013-06-01 01:44:00,71.8,64.0,29.75,SE,134,11.0,23.0,77,0.00,,,0.02,weatherlink.com 1.10,2013-06-01 06:44:00,
2013-06-01 01:59:00,70.0,64.0,29.74,SSW,213,10.0,21.0,81,0.00,,,0.02,weatherlink.com 1.10,2013-06-01 06:59:00,
2013-06-01 02:14:00,69.6,64.0,29.71,SSW,200,6.0,20.0,83,0.00,,,0.02,weatherlink.com 1.10,2013-06-01 07:14:00,
2013-06-01 02:29:00,69.0,65.0,29.76,SW,221,8.0,23.0,86,0.00,,,0.02,weatherlink.com 1.10,2013-06-01 07:29:00,
2013-06-01 02:44:00,68.6,64.0,29.73,WSW,252,7.0,20.0,84,0.00,,,0.02,weatherlink.com 1.10,2013-06-01 07:44:00,
2013-06-01 02:59:00,67.9,64.0,29.73,SSW,204,6.0,11.0,86,0.00,,,0.02,weatherlink.com 1.10,2013-06-01 07:59:00,
2013-06-01 03:15:00,67.4,63.0,29.71,South,175,9.0,11.0,86,0.00,,,0.02,weatherlink.com 1.10,2013-06-01 08:15:00,
2013-06-01 03:30:00,66.9,63.0,29.69,SSE,159,6.0,8.0,88,0.00,,,0.02,weatherlink.com 1.10,2013-06-01 08:30:00,
2013-06-01 03:45:00,66.3,63.0,29.74,SSW,200,6.0,11.0,89,0.01,,,0.03,weatherlink.com 1.10,2013-06-01 08:45:00,
2013-06-01 04:00:00,65.7,63.0,29.75,WNW,295,7.0,8.0,91,0.02,,,0.04,weatherlink.com 1.10,2013-06-01 09:00:00,
2013-06-01 04:15:00,65.4,63.0,29.77,SW,219,6.0,7.0,91,0.02,,,0.04,weatherlink.com 1.10,2013-06-01 09:15:00,
2013-06-01 04:30:00,65.5,63.0,29.79,SW,225,0.0,5.0,91,0.02,,,0.04,weatherlink.com 1.10,2013-06-01 09:30:00,
2013-06-01 04:45:00,65.5,63.0,29.73,ESE,123,1.0,7.0,92,0.01,,,0.04,weatherlink.com 1.10,2013-06-01 09:45:00,
2013-06-01 05:00:00,65.3,63.0,29.77,NNW,337,6.0,7.0,93,0.00,,,0.04,weatherlink.com 1.10,2013-06-01 10:00:00,
2013-06-01 05:15:00,65.3,63.0,29.76,East,99,1.0,4.0,93,0.00,,,0.04,weatherlink.com 1.10,2013-06-01 10:15:00,
2013-06-01 05:30:00,65.3,64.0,29.74,North,360,0.0,5.0,94,0.00,,,0.04,weatherlink.com 1.10,2013-06-01 10:30:00,
2013-06-01 05:45:00,65.1,63.0,29.76,ESE,114,1.0,4.0,94,0.00,,,0.04,weatherlink.com 1.10,2013-06-01 10:45:00,
2013-06-01 06:00:00,65.0,63.0,29.78,SE,134,5.0,5.0,94,0.00,,,0.04,weatherlink.com 1.10,2013-06-01 11:00:00,
2013-06-01 06:15:00,65.1,63.0,29.80,SE,138,2.0,8.0,94,0.00,,,0.04,weatherlink.com 1.10,2013-06-01 11:15:00,
2013-06-01 06:30:00,65.0,63.0,29.81,SE,138,11.0,14.0,94,0.00,,,0.04,weatherlink.com 1.10,2013-06-01 11:30:00,
2013-06-01 06:45:00,64.9,63.0,29.81,SSE,152,1.0,7.0,94,0.01,,,0.05,weatherlink.com 1.10,2013-06-01 11:45:00,
2013-06-01 07:00:00,64.9,63.0,29.82,ESE,111,5.0,7.0,94,0.01,,,0.05,weatherlink.com 1.10,2013-06-01 12:00:00,
2013-06-01 07:15:00,65.0,63.0,29.82,SE,132,8.0,8.0,94,0.01,,,0.05,weatherlink.com 1.10,2013-06-01 12:15:00,
2013-06-01 07:30:00,64.7,63.0,29.80,SE,136,10.0,12.0,95,0.01,,,0.05,weatherlink.com 1.10,2013-06-01 12:30:00,
2013-06-01 07:45:00,64.8,63.0,29.82,SSE,156,0.0,14.0,95,0.00,,,0.05,weatherlink.com 1.10,2013-06-01 12:45:00,
2013-06-01 08:00:00,64.9,64.0,29.84,SSE,152,5.0,8.0,95,0.00,,,0.05,weatherlink.com 1.10,2013-06-01 13:00:00,
2013-06-01 08:15:00,65.0,64.0,29.85,SE,139,3.0,4.0,95,0.00,,,0.05,weatherlink.com 1.10,2013-06-01 13:15:00,
2013-06-01 08:30:00,65.2,64.0,29.86,NW,311,0.0,5.0,95,0.00,,,0.05,weatherlink.com 1.10,2013-06-01 13:30:00,
2013-06-01 08:45:00,65.4,64.0,29.87,NW,311,1.0,3.0,95,0.00,,,0.05,weatherlink.com 1.10,2013-06-01 13:45:00,
2013-06-01 09:00:00,65.4,64.0,29.87,NW,311,1.0,3.0,95,0.00,,,0.05,weatherlink.com 1.10,2013-06-01 14:00:00,
2013-06-01 09:15:00,65.5,64.0,29.87,NW,311,3.0,3.0,95,0.00,,,0.05,weatherlink.com 1.10,2013-06-01 14:15:00,
2013-06-01 09:30:00,65.6,64.0,29.88,WNW,289,1.0,5.0,95,0.00,,,0.05,weatherlink.com 1.10,2013-06-01 14:30:00,
2013-06-01 09:45:00,65.7,65.0,29.89,WNW,290,3.0,3.0,96,0.00,,,0.05,weatherlink.com 1.10,2013-06-01 14:45:00,
2013-06-01 10:00:00,65.7,64.0,29.90,NW,316,2.0,4.0,95,0.00,,,0.05,weatherlink.com 1.10,2013-06-01 15:00:00,
2013-06-01 10:15:00,66.0,65.0,29.90,NW,312,0.0,3.0,95,0.00,,,0.05,weatherlink.com 1.10,2013-06-01 15:15:00,
2013-06-01 10:30:00,66.5,65.0,29.90,NW,323,0.0,2.0,96,0.00,,,0.05,weatherlink.com 1.10,2013-06-01 15:30:00,
2013-06-01 10:45:00,66.8,65.0,29.90,NW,323,1.0,3.0,95,0.00,,,0.05,weatherlink.com 1.10,2013-06-01 15:45:00,
2013-06-01 11:00:00,67.3,66.0,29.91,NW,323,0.0,2.0,94,0.00,,,0.05,weatherlink.com 1.10,2013-06-01 16:00:00,
2013-06-01 11:15:00,67.9,66.0,29.92,NW,323,1.0,3.0,93,0.00,,,0.05,weatherlink.com 1.10,2013-06-01 16:15:00,
2013-06-01 11:30:00,68.6,66.0,29.92,NW,323,1.0,2.0,91,0.00,,,0.05,weatherlink.com 1.10,2013-06-01 16:30:00,
2013-06-01 11:45:00,69.7,66.0,29.92,NW,313,0.0,3.0,89,0.00,,,0.05,weatherlink.com 1.10,2013-06-01 16:45:00,
2013-06-01 12:00:00,71.0,66.0,29.93,NNW,336,0.0,5.0,85,0.00,,,0.05,weatherlink.com 1.10,2013-06-01 17:00:00,
2013-06-01 12:15:00,71.9,67.0,29.92,WSW,249,4.0,5.0,83,0.00,,,0.05,weatherlink.com 1.10,2013-06-01 17:15:00,
2013-06-01 12:30:00,72.9,66.0,29.92,SSW,195,0.0,4.0,80,0.00,,,0.05,weatherlink.com 1.10,2013-06-01 17:30:00,
2013-06-01 12:45:00,73.6,67.0,29.92,South,187,2.0,6.0,79,0.00,,,0.05,weatherlink.com 1.10,2013-06-01 17:45:00,
2013-06-01 13:00:00,74.1,67.0,29.92,SSW,192,2.0,3.0,78,0.00,,,0.05,weatherlink.com 1.10,2013-06-01 18:00:00,
2013-06-01 13:15:00,75.7,67.0,29.91,SSW,194,1.0,4.0,75,0.00,,,0.05,weatherlink.com 1.10,2013-06-01 18:15:00,
2013-06-01 13:30:00,75.9,66.0,29.92,WNW,288,3.0,5.0,71,0.00,,,0.05,weatherlink.com 1.10,2013-06-01 18:30:00,
2013-06-01 13:45:00,76.2,65.0,29.91,WNW,286,5.0,5.0,68,0.00,,,0.05,weatherlink.com 1.10,2013-06-01 18:45:00,
2013-06-01 14:00:00,77.0,61.0,29.91,NW,311,4.0,8.0,58,0.00,,,0.05,weatherlink.com 1.10,2013-06-01 19:00:00,
2013-06-01 14:15:00,77.3,61.0,29.91,WNW,297,5.0,7.0,57,0.00,,,0.05,weatherlink.com 1.10,2013-06-01 19:15:00,
2013-06-01 14:30:00,77.4,56.0,29.91,WNW,296,4.0,11.0,47,0.00,,,0.05,weatherlink.com 1.10,2013-06-01 19:30:00,
2013-06-01 14:45:00,78.1,62.0,29.91,North,5,3.0,8.0,57,0.00,,,0.05,weatherlink.com 1.10,2013-06-01 19:45:00,
2013-06-01 15:00:00,78.4,62.0,29.91,NNW,340,7.0,10.0,57,0.00,,,0.05,weatherlink.com 1.10,2013-06-01 20:00:00,
2013-06-01 15:15:00,78.6,62.0,29.91,NNW,336,6.0,12.0,58,0.00,,,0.05,weatherlink.com 1.10,2013-06-01 20:15:00,
2013-06-01 15:31:00,78.9,60.0,29.90,WNW,288,8.0,12.0,52,0.00,,,0.00,weatherlink.com 1.10,2013-06-01 20:31:00,
2013-06-01 15:46:00,79.2,62.0,29.91,NW,306,10.0,11.0,56,0.00,,,0.00,weatherlink.com 1.10,2013-06-01 20:46:00,
2013-06-01 16:01:00,78.4,60.0,29.90,NW,316,6.0,14.0,54,0.00,,,0.00,weatherlink.com 1.10,2013-06-01 21:01:00,
2013-06-01 16:16:00,78.4,61.0,29.91,NNW,344,7.0,17.0,56,0.00,,,0.00,weatherlink.com 1.10,2013-06-01 21:16:00,
2013-06-01 16:31:00,78.1,60.0,29.91,WNW,283,9.0,16.0,54,0.00,,,0.00,weatherlink.com 1.10,2013-06-01 21:31:00,
2013-06-01 16:46:00,77.5,58.0,29.92,NW,310,10.0,17.0,52,0.00,,,0.00,weatherlink.com 1.10,2013-06-01 21:46:00,
2013-06-01 17:01:00,77.5,59.0,29.92,NNW,332,8.0,18.0,54,0.00,,,0.00,weatherlink.com 1.10,2013-06-01 22:01:00,
2013-06-01 17:16:00,77.6,60.0,29.92,NW,325,10.0,16.0,54,0.00,,,0.00,weatherlink.com 1.10,2013-06-01 22:16:00,
2013-06-01 17:31:00,77.4,58.0,29.92,NNW,334,5.0,13.0,51,0.00,,,0.00,weatherlink.com 1.10,2013-06-01 22:31:00,
2013-06-01 17:46:00,77.4,58.0,29.93,NW,313,5.0,14.0,51,0.00,,,0.00,weatherlink.com 1.10,2013-06-01 22:46:00,
2013-06-01 18:01:00,77.3,59.0,29.93,NNE,14,8.0,15.0,53,0.00,,,0.00,weatherlink.com 1.10,2013-06-01 23:01:00,
2013-06-01 18:16:00,76.7,58.0,29.93,NW,318,9.0,14.0,53,0.00,,,0.00,weatherlink.com 1.10,2013-06-01 23:16:00,
2013-06-01 18:31:00,76.4,58.0,29.93,NNW,343,12.0,13.0,53,0.00,,,0.00,weatherlink.com 1.10,2013-06-01 23:31:00,
2013-06-01 18:46:00,75.8,59.0,29.93,NNW,329,3.0,12.0,56,0.00,,,0.00,weatherlink.com 1.10,2013-06-01 23:46:00,
2013-06-01 19:01:00,75.3,58.0,29.94,NNW,348,7.0,12.0,56,0.00,,,0.00,weatherlink.com 1.10,2013-06-02 00:01:00,
2013-06-01 19:16:00,74.6,58.0,29.94,NW,311,4.0,14.0,57,0.00,,,0.00,weatherlink.com 1.10,2013-06-02 00:16:00,
2013-06-01 19:31:00,74.1,58.0,29.95,NNW,338,5.0,10.0,57,0.00,,,0.00,weatherlink.com 1.10,2013-06-02 00:31:00,
2013-06-01 19:46:00,73.7,58.0,29.95,NNW,335,5.0,9.0,59,0.00,,,0.00,weatherlink.com 1.10,2013-06-02 00:46:00,
2013-06-01 20:01:00,73.0,58.0,29.95,North,5,7.0,10.0,59,0.00,,,0.00,weatherlink.com 1.10,2013-06-02 01:01:00,
2013-06-01 20:16:00,72.1,58.0,29.96,NNW,344,2.0,8.0,61,0.00,,,0.00,weatherlink.com 1.10,2013-06-02 01:16:00,
2013-06-01 20:31:00,71.2,58.0,29.96,NNW,347,1.0,6.0,63,0.00,,,0.00,weatherlink.com 1.10,2013-06-02 01:31:00,
2013-06-01 20:46:00,70.2,58.0,29.97,NNW,348,1.0,4.0,66,0.00,,,0.00,weatherlink.com 1.10,2013-06-02 01:46:00,
2013-06-01 21:01:00,69.4,58.0,29.97,NNW,347,0.0,3.0,68,0.00,,,0.00,weatherlink.com 1.10,2013-06-02 02:01:00,
2013-06-01 21:16:00,68.9,58.0,29.98,NNW,347,0.0,4.0,68,0.00,,,0.00,weatherlink.com 1.10,2013-06-02 02:16:00,
2013-06-01 21:32:00,68.4,58.0,29.99,NNW,346,0.0,4.0,70,0.00,,,0.00,weatherlink.com 1.10,2013-06-02 02:32:00,
2013-06-01 21:47:00,67.8,58.0,30.00,NNW,346,1.0,3.0,72,0.00,,,0.00,weatherlink.com 1.10,2013-06-02 02:47:00,
2013-06-01 22:02:00,67.5,59.0,30.00,NNW,344,1.0,4.0,73,0.00,,,0.00,weatherlink.com 1.10,2013-06-02 03:02:00,
2013-06-01 22:17:00,67.1,59.0,30.01,NNW,346,0.0,3.0,74,0.00,,,0.00,weatherlink.com 1.10,2013-06-02 03:17:00,
2013-06-01 22:32:00,66.7,59.0,30.01,NNW,346,0.0,2.0,75,0.00,,,0.00,weatherlink.com 1.10,2013-06-02 03:32:00,
2013-06-01 22:47:00,66.0,59.0,30.02,NNW,346,0.0,3.0,77,0.00,,,0.00,weatherlink.com 1.10,2013-06-02 03:47:00,
2013-06-01 23:02:00,65.5,58.0,30.02,NNW,346,0.0,3.0,78,0.00,,,0.00,weatherlink.com 1.10,2013-06-02 04:02:00,
2013-06-01 23:17:00,64.9,58.0,30.02,NNW,346,1.0,1.0,79,0.00,,,0.00,weatherlink.com 1.10,2013-06-02 04:17:00,
2013-06-01 23:32:00,64.7,58.0,30.03,NNW,346,2.0,2.0,80,0.00,,,0.00,weatherlink.com 1.10,2013-06-02 04:32:00,
2013-06-01 23:47:00,64.6,58.0,30.03,NNW,346,0.0,2.0,80,0.00,,,0.00,weatherlink.com 1.10,2013-06-02 04:47:00,